Wind_Speed
5 5 6 6 7 7 7 7 8 9 9 10 10 11 10 11 11 12 12 12 12 12 12 12 12 12 11 10 10 9 8 7 6 6 6 6 5 5 4 4 3 2 1
5 5 6 6 6 7 7 8 9 9 10 10 10 10 10 11 11 12 13 13 14 14 13 13 13 13 13 12 11 10 9 8 8 7 7 6 6 6 5 5 5 3 2
5 5 6 6 6 6 7 8 9 10 10 10 10 10 10 10 11 11 12 13 14 15 15 15 15 14 14 13 13 12 11 10 9 9 8 7 7 7 6 6 5 4 3
5 5 5 5 6 6 7 8 9 10 10 10 10 10 10 10 10 11 12 12 13 15 15 16 16 16 15 15 14 13 13 11 11 10 9 8 7 7 7 7 6 6 5
4 5 5 5 6 7 8 8 9 9 9 9 9 9 10 10 11 12 12 13 13 14 15 16 16 16 16 16 16 15 14 13 12 11 11 10 8 8 8 8 8 7 6
4 4 5 6 7 7 7 8 8 8 9 9 9 10 10 11 12 12 13 13 14 14 15 15 15 16 16 16 15 15 15 15 14 13 12 11 10 10 10 9 9 8 7
4 5 5 6 6 6 7 7 8 8 9 9 10 10 10 11 12 13 13 13 13 13 14 15 15 15 16 16 16 15 16 16 15 15 13 12 12 11 11 11 10 10 9
4 5 6 6 6 6 6 7 8 9 9 9 10 11 12 12 13 13 13 13 13 13 14 14 15 15 16 16 16 16 16 16 16 15 15 14 13 13 13 12 12 11 10
5 5 5 5 6 6 7 7 8 9 9 10 11 12 13 13 13 13 13 13 14 14 14 14 14 15 16 16 15 15 15 16 17 17 16 16 15 15 14 14 13 13 11
5 5 5 6 6 7 7 8 9 9 10 11 12 13 14 14 14 14 14 14 14 14 14 14 14 14 15 15 16 16 17 16 17 18 17 17 17 17 16 15 15 15 13
6 6 5 6 7 7 8 9 9 10 11 12 13 14 14 15 15 14 14 14 14 14 14 14 14 14 15 15 16 17 17 17 17 19 19 18 18 18 18 17 17 16 15
6 6 6 7 7 8 8 9 10 10 11 12 13 14 14 15 15 14 14 15 15 15 15 15 15 15 15 16 16 17 17 17 18 19 20 20 19 19 19 19 18 17 17
7 7 7 7 8 8 9 9 10 11 12 13 14 14 14 15 15 15 15 15 15 15 15 15 15 15 16 16 16 17 17 18 18 19 20 21 21 20 20 20 20 18 18
7 7 7 8 8 8 9 10 11 12 13 13 14 14 15 15 15 15 15 15 15 15 15 15 15 15 16 16 15 16 17 18 19 19 19 21 22 22 21 21 21 20 19
8 8 8 8 8 9 9 10 11 12 13 13 14 14 15 15 15 16 16 16 16 15 15 15 15 14 15 15 15 16 17 18 19 20 20 22 23 23 22 23 22 21 20
9 9 9 8 8 9 10 11 11 12 13 14 14 15 15 15 16 16 16 16 16 16 15 15 14 14 14 14 15 16 17 18 20 21 21 22 24 24 24 24 24 23 22
9 9 9 9 9 10 11 11 12 13 13 14 14 15 15 16 16 16 16 16 16 15 15 14 13 13 13 13 14 16 17 18 19 21 22 22 23 24 24 24 25 24 23
10 10 9 9 10 10 11 12 12 13 13 14 15 15 15 16 16 16 16 16 16 15 14 13 12 12 12 12 13 15 16 18 19 21 22 22 23 24 25 25 26 25 25
10 10 9 9 10 10 11 12 12 13 13 14 14 15 15 16 16 16 16 15 15 14 13 12 12 11 11 11 12 14 15 17 18 20 21 22 23 24 25 25 27 26 25
9 10 10 9 10 10 11 11 12 13 13 14 14 14 15 15 16 16 16 15 15 14 13 12 11 11 11 11 12 13 14 17 17 19 20 22 23 24 25 26 26 27 26
9 9 10 10 10 10 11 11 12 13 13 13 14 14 15 15 16 16 16 16 15 14 12 11 10 10 10 10 11 12 13 16 17 18 20 21 23 24 26 26 27 26 27
9 9 9 9 10 10 11 11 12 13 13 13 14 14 15 16 16 16 16 15 14 13 12 11 10 9 9 9 10 11 13 15 16 18 19 20 22 23 25 26 26 27 28
9 9 9 10 10 11 11 11 12 13 13 13 14 15 15 16 16 17 16 15 14 13 12 10 9 9 9 8 9 10 12 14 15 17 18 19 21 23 25 26 27 27 27
9 9 9 10 11 11 11 11 12 13 13 14 14 15 15 16 16 17 16 16 15 13 12 11 10 8 8 8 8 9 10 12 15 17 17 18 20 22 24 26 27 27 27
9 9 9 10 11 11 11 12 13 13 14 14 15 15 16 16 16 17 17 16 15 13 12 11 9 8 7 7 8 8 9 11 13 15 17 18 19 21 23 25 26 27 27
8 9 10 10 11 12 12 12 13 14 14 15 15 16 16 16 17 17 17 16 14 13 12 11 9 8 7 6 7 8 8 10 12 14 16 17 18 19 21 23 25 26 26
Wind_Direction
305 310 311 311 316 318 316 315 314 313 311 309 306 303 298 293 288 285 278 277 279 277 275 273 271 269 268 266 261 259 257 259 259 254 252 250 246 242 241 236 233 245 267
299 302 306 308 311 313 314 315 313 311 309 308 306 303 299 295 290 286 282 276 275 273 271 271 272 269 265 263 260 258 254 252 252 250 250 250 246 238 230 230 226 232 235
292 303 306 306 307 307 310 313 312 309 308 308 306 304 301 298 294 289 285 280 276 273 272 271 270 267 263 260 257 254 252 246 246 247 247 246 244 234 225 223 221 223 220
291 305 306 304 304 306 311 312 312 311 309 309 308 306 305 302 298 295 291 284 280 276 274 271 269 266 261 257 255 252 250 244 243 241 240 238 238 231 222 219 217 217 214
295 304 303 303 305 309 311 311 312 311 312 313 312 311 309 307 304 301 297 291 285 279 276 273 270 265 259 257 254 251 249 244 239 238 235 231 232 229 220 216 213 211 209
297 304 304 304 306 309 310 311 313 314 315 315 314 313 312 310 308 305 302 297 291 284 277 274 271 266 262 255 253 249 246 241 236 236 234 229 228 226 215 213 211 208 204
298 303 307 309 307 308 309 309 313 315 315 314 314 314 314 313 312 308 305 303 297 291 283 276 271 267 262 254 252 249 244 238 234 233 231 228 225 222 213 211 210 206 202
299 303 307 311 307 308 311 310 312 314 314 314 314 315 315 313 312 311 309 305 301 297 290 281 275 268 263 257 252 248 244 237 233 231 227 224 221 216 212 210 208 203 202
299 302 303 309 306 306 307 308 312 313 312 313 314 315 314 312 311 309 308 307 304 300 296 287 279 272 264 258 252 246 245 239 232 229 226 223 220 215 212 211 208 202 201
299 300 297 301 301 303 305 310 314 314 314 315 315 315 314 313 311 309 307 306 305 302 297 291 283 275 266 260 254 248 245 239 232 228 227 223 220 215 212 211 208 204 202
296 296 295 298 300 304 308 311 313 313 314 316 317 317 315 314 312 310 308 306 304 301 297 291 284 276 270 262 255 251 247 238 233 228 226 223 220 216 212 210 209 206 204
297 298 297 299 301 305 310 311 313 315 316 317 317 316 314 314 312 310 308 306 303 301 296 291 285 277 271 263 256 251 247 239 233 228 224 222 221 217 213 211 210 209 207
293 295 295 294 298 303 308 311 315 317 318 319 318 316 315 314 313 311 309 306 303 300 296 291 284 277 271 264 257 251 245 239 232 228 224 221 219 217 214 212 210 211 210
289 291 292 294 297 300 307 313 316 318 319 320 319 318 317 317 315 314 311 309 306 301 297 293 286 280 273 265 257 250 243 236 232 229 224 220 218 218 215 212 211 211 211
286 289 291 294 298 303 309 312 314 316 318 320 320 320 320 319 317 316 313 311 308 303 298 294 287 282 275 266 256 248 242 234 232 230 224 220 219 219 218 214 211 210 211
284 288 291 294 301 306 310 313 314 317 319 320 322 323 323 323 321 319 316 313 311 306 301 295 288 281 274 266 255 246 241 234 231 228 225 221 220 219 218 215 212 211 212
283 288 292 296 302 307 312 315 317 320 321 323 325 325 326 326 325 323 319 317 315 310 304 298 289 281 272 264 256 246 241 235 230 226 224 222 220 218 217 215 214 213 213
282 286 289 295 300 305 312 315 318 321 322 324 328 329 328 328 327 326 323 320 319 314 307 302 292 282 273 266 257 246 240 235 230 225 222 222 221 219 218 217 216 215 214
281 285 287 291 298 304 309 315 320 322 324 326 330 331 332 333 332 329 326 323 322 317 311 305 296 285 274 265 255 248 240 235 231 226 223 221 220 219 219 218 218 217 216
281 283 285 289 296 302 308 314 320 323 325 326 329 333 334 336 336 334 330 327 325 320 313 306 299 287 276 267 257 249 240 234 231 227 225 223 222 221 220 219 217 217 216
286 285 286 290 296 302 307 314 320 323 324 325 328 332 335 337 338 336 332 329 326 323 318 311 301 291 279 269 257 249 239 233 230 227 226 225 223 222 221 220 217 217 216
284 285 286 289 295 299 305 312 318 323 324 325 327 330 334 337 339 337 335 333 331 327 322 316 305 294 282 271 260 250 241 234 228 227 227 225 224 223 221 219 217 217 216
282 285 289 291 294 297 303 309 316 321 324 325 328 330 333 336 339 339 337 336 334 330 326 319 309 299 284 272 262 254 244 237 228 227 227 226 224 222 220 219 218 217 218
285 287 292 294 295 296 301 308 312 318 323 326 328 330 333 335 339 340 339 337 335 332 328 323 313 305 287 273 263 257 247 237 228 227 226 226 225 222 220 219 218 218 219
290 290 292 294 297 298 300 306 310 316 321 324 327 330 331 334 338 339 339 338 336 334 332 327 318 307 293 278 264 257 248 237 229 226 225 224 224 223 221 220 219 219 220
293 295 295 296 298 299 300 304 308 314 319 323 325 328 330 332 335 337 339 338 337 337 336 332 323 309 295 284 268 257 246 236 229 228 226 224 225 224 221 220 222 221 221
Height
5881 5881 5880 5879 5879 5878 5877 5877 5876 5876 5875 5874 5874 5873 5872 5871 5870 5870 5869 5869 5869 5868 5868 5868 5868 5869 5869 5869 5869 5870 5870 5870 5871 5871 5872 5872 5872 5872 5872 5872 5872 5872 5872
5880 5879 5879 5878 5877 5877 5876 5876 5875 5874 5874 5873 5872 5871 5870 5869 5868 5868 5867 5867 5866 5866 5866 5866 5866 5866 5867 5867 5867 5868 5868 5869 5869 5870 5870 5871 5871 5871 5871 5871 5872 5872 5871
5879 5878 5878 5877 5877 5876 5875 5875 5874 5873 5872 5871 5870 5869 5868 5867 5866 5865 5865 5864 5864 5863 5863 5863 5863 5863 5864 5864 5865 5865 5866 5867 5867 5868 5868 5869 5869 5870 5870 5871 5871 5871 5871
5878 5877 5877 5876 5875 5875 5874 5873 5873 5872 5871 5870 5868 5867 5866 5865 5864 5863 5862 5861 5861 5860 5860 5860 5860 5860 5861 5861 5862 5862 5863 5864 5865 5866 5866 5867 5868 5869 5869 5870 5870 5871 5871
5877 5876 5875 5875 5874 5874 5873 5872 5871 5870 5869 5868 5867 5866 5865 5863 5862 5861 5860 5859 5858 5857 5857 5857 5857 5857 5857 5858 5859 5859 5860 5862 5862 5863 5864 5865 5866 5867 5868 5869 5869 5870 5871
5876 5875 5874 5874 5873 5872 5871 5871 5870 5869 5868 5867 5865 5864 5863 5862 5860 5859 5858 5857 5855 5855 5854 5854 5853 5853 5854 5854 5855 5856 5857 5858 5860 5861 5862 5863 5864 5865 5867 5868 5868 5869 5870
5875 5874 5873 5873 5872 5871 5870 5870 5869 5868 5866 5865 5864 5863 5861 5860 5858 5857 5855 5854 5853 5852 5851 5850 5850 5850 5850 5851 5852 5853 5854 5855 5857 5858 5859 5861 5862 5864 5865 5866 5867 5868 5869
5874 5873 5872 5872 5871 5870 5869 5868 5867 5866 5865 5864 5862 5861 5859 5858 5856 5855 5853 5852 5850 5849 5848 5847 5847 5847 5847 5847 5848 5850 5851 5852 5854 5855 5857 5858 5860 5861 5863 5865 5866 5867 5868
5872 5872 5871 5870 5870 5869 5868 5867 5866 5865 5864 5862 5861 5859 5858 5856 5854 5852 5851 5849 5848 5847 5845 5844 5844 5843 5844 5844 5845 5846 5847 5848 5850 5852 5854 5856 5857 5859 5861 5863 5865 5866 5867
5872 5871 5870 5869 5868 5868 5867 5866 5864 5863 5862 5861 5859 5857 5855 5854 5852 5850 5848 5847 5845 5844 5842 5841 5840 5840 5840 5841 5842 5843 5843 5845 5847 5849 5851 5853 5855 5857 5859 5861 5863 5865 5866
5871 5870 5869 5868 5867 5866 5865 5864 5863 5862 5860 5859 5857 5855 5853 5851 5849 5847 5846 5844 5843 5841 5840 5838 5838 5837 5837 5837 5838 5839 5840 5841 5843 5845 5847 5850 5852 5854 5856 5859 5861 5863 5865
5869 5869 5868 5867 5866 5865 5864 5863 5861 5860 5859 5857 5855 5853 5851 5849 5847 5845 5843 5841 5840 5838 5837 5835 5835 5834 5833 5834 5834 5835 5836 5837 5839 5841 5844 5846 5849 5851 5854 5856 5859 5861 5863
5868 5867 5867 5866 5865 5864 5863 5862 5860 5859 5857 5855 5853 5851 5848 5846 5844 5842 5840 5838 5837 5835 5833 5832 5831 5830 5830 5830 5830 5831 5832 5834 5835 5838 5840 5843 5846 5848 5851 5853 5856 5859 5861
5867 5866 5866 5865 5864 5863 5861 5860 5859 5857 5855 5853 5851 5848 5846 5844 5842 5839 5837 5835 5833 5831 5830 5828 5827 5826 5826 5826 5826 5827 5828 5830 5832 5834 5837 5839 5842 5845 5848 5851 5854 5856 5859
5866 5865 5864 5864 5863 5861 5860 5859 5857 5855 5853 5851 5849 5846 5844 5842 5839 5837 5834 5832 5830 5828 5826 5825 5824 5823 5822 5822 5823 5824 5825 5827 5828 5831 5833 5836 5839 5842 5845 5847 5850 5853 5856
5865 5864 5863 5862 5861 5860 5859 5857 5855 5853 5851 5849 5846 5844 5841 5839 5836 5834 5831 5829 5827 5824 5823 5821 5820 5819 5818 5818 5819 5820 5821 5823 5825 5827 5829 5832 5835 5838 5841 5844 5847 5850 5853
5863 5862 5862 5861 5860 5858 5857 5855 5854 5851 5849 5847 5844 5842 5839 5836 5834 5831 5828 5826 5823 5821 5819 5818 5816 5815 5815 5815 5815 5816 5817 5819 5821 5823 5825 5828 5831 5834 5838 5841 5844 5847 5850
5861 5861 5860 5859 5858 5857 5855 5854 5852 5850 5847 5845 5843 5840 5837 5834 5831 5828 5826 5823 5820 5818 5816 5814 5813 5812 5812 5811 5811 5812 5814 5815 5817 5820 5822 5825 5828 5831 5834 5837 5840 5844 5847
5859 5859 5858 5858 5857 5855 5854 5852 5850 5848 5846 5843 5841 5838 5835 5832 5829 5826 5823 5820 5818 5815 5813 5811 5810 5809 5808 5808 5808 5809 5810 5812 5814 5816 5819 5821 5824 5827 5830 5834 5837 5840 5843
5858 5857 5857 5856 5855 5854 5852 5851 5849 5847 5845 5842 5839 5837 5834 5830 5827 5824 5821 5818 5815 5813 5811 5809 5807 5806 5805 5805 5805 5805 5806 5808 5810 5813 5815 5818 5820 5823 5826 5830 5833 5836 5840
5856 5856 5855 5854 5853 5852 5851 5849 5847 5845 5843 5841 5838 5835 5832 5829 5825 5822 5819 5816 5813 5810 5808 5806 5804 5803 5802 5802 5802 5802 5803 5805 5807 5809 5811 5814 5817 5819 5822 5826 5829 5832 5836
5855 5854 5854 5853 5852 5851 5849 5848 5846 5844 5842 5839 5837 5834 5831 5827 5824 5821 5817 5814 5811 5808 5806 5804 5802 5801 5800 5799 5799 5800 5801 5802 5804 5806 5808 5810 5813 5815 5818 5822 5825 5829 5832
5853 5853 5852 5851 5850 5849 5848 5846 5844 5842 5840 5838 5835 5832 5829 5826 5822 5819 5816 5812 5809 5807 5804 5802 5800 5799 5798 5797 5797 5797 5798 5799 5801 5803 5805 5807 5809 5812 5815 5818 5822 5825 5828
5852 5851 5850 5850 5849 5847 5846 5845 5843 5841 5839 5836 5834 5831 5828 5824 5821 5817 5814 5811 5808 5805 5802 5800 5798 5797 5796 5795 5795 5795 5795 5796 5798 5800 5802 5804 5806 5808 5811 5814 5818 5821 5824
5850 5849 5849 5848 5847 5846 5844 5843 5841 5839 5837 5835 5832 5829 5826 5823 5819 5816 5813 5809 5806 5803 5801 5799 5797 5795 5794 5793 5793 5793 5793 5794 5795 5797 5799 5801 5803 5805 5808 5811 5814 5817 5820
5848 5848 5847 5846 5845 5844 5843 5841 5840 5838 5835 5833 5830 5827 5824 5821 5818 5815 5811 5808 5805 5802 5800 5797 5795 5794 5793 5792 5792 5791 5792 5792 5793 5794 5796 5798 5800 5802 5804 5807 5810 5813 5816